Simultaneous Nadir Overpasses (SNOs) Predictions

Prediction of SNOs between GOES-16 and METOP-C Satellite Orbit:

Table of predicted SNOs for the next 14.0 days since TLE Epoch: 3/25/2023
Index Date Time (GOES-16) GOES-16 Lat,Lon METOP-C Lat,Lon Distance(km) Time Diff (sec)
1 03/25/2023 14:34:24 0.06, -75.20 0.13, -75.61 46.64 80
2 03/28/2023 02:32:46 -0.05, -75.20 -0.08, -75.21 3.07 80
3 03/30/2023 14:28:22 0.05, -75.22 -0.05, -74.80 47.43 80
4 04/01/2023 02:50:02 -0.05, -75.22 -0.98, -79.40 475.64 80
5 04/02/2023 02:26:44 -0.05, -75.23 0.15, -74.41 94.13 80
6 04/03/2023 14:45:37 0.05, -75.26 0.89, -78.98 424.11 80
7 04/04/2023 14:24:59 0.04, -75.27 -0.25, -73.99 146.25 80
8 04/06/2023 02:46:39 -0.05, -75.29 -0.75, -78.59 375.28 80
9 04/07/2023 02:23:19 -0.04, -75.31 0.33, -73.59 195.33 80
